This is the latest recevied weather packets stored in our database for station/object KG5MMT-12. If no packets are shown the sender has not sent any weather packets the latest 10 day(s).
| Time | Temp. | Humidity | Pressure | Rain* | Wind** | Luminosity | Snow |
|---|---|---|---|---|---|---|---|
| 1788451743 | 25° C | 35% | 0 hPa | 0 mm | - | - | - |
| 1788451443 | 24.44° C | 33% | 0 hPa | 0 mm | - | - | - |
| 1788451144 | 25° C | 32% | 0 hPa | 0 mm | - | - | - |
| 1788450843 | 24.44° C | 36% | 0 hPa | 0 mm | - | - | - |
| 1788450543 | 24.44° C | 34% | 0 hPa | 0 mm | - | - | - |
| 1788450243 | 24.44° C | 34% | 0 hPa | 0 mm | - | - | - |
| 1788449943 | 24.44° C | 36% | 0 hPa | 0 mm | - | - | - |
| 1788449643 | 24.44° C | 36% | 0 hPa | 0 mm | - | - | - |
| 1788449343 | 23.89° C | 36% | 0 hPa | 0 mm | - | - | - |
| 1788449043 | 23.89° C | 35% | 0 hPa | 0 mm | - | - | - |
| 1788448743 | 23.89° C | 36% | 0 hPa | 0 mm | - | - | - |
| 1788448443 | 23.33° C | 37% | 0 hPa | 0 mm | - | - | - |
| 1788448143 | 23.33° C | 37% | 0 hPa | 0 mm | - | - | - |
| 1788447843 | 22.78° C | 40% | 0 hPa | 0 mm | - | - | - |
| 1788447543 | 22.22° C | 42% | 0 hPa | 0 mm | - | - | - |
| 1788447243 | 21.67° C | 45% | 0 hPa | 0 mm | - | - | - |
| 1788446943 | 21.11° C | 46% | 0 hPa | 0 mm | - | - | - |
| 1788446643 | 20° C | 47% | 0 hPa | 0 mm | - | - | - |
| 1788446343 | 20° C | 54% | 0 hPa | 0 mm | - | - | - |
| 1788446043 | 19.44° C | 54% | 0 hPa | 0 mm | - | - | - |
| 1788445743 | 18.89° C | 55% | 0 hPa | 0 mm | - | - | - |
| 1788445443 | 18.89° C | 53% | 0 hPa | 0 mm | - | - | - |
| 1788445143 | 18.33° C | 60% | 0 hPa | 0 mm | - | - | - |
| 1788444843 | 17.22° C | 59% | 0 hPa | 0 mm | - | - | - |
| 1788444543 | 16.67° C | 63% | 0 hPa | 0 mm | - | - | - |
* Rain latest hour (hover to see other rain measurements)
** Current wind speed in m/s (hover to see current wind gust speed)